Torna al catalogo

DELTA 1 DEB

AttivoSSO
NORAD 21279·DEBRIS·🇺🇸 United States

Lanciato Jun 12, 1975 da Vandenberg Space Force Base

Loading…

Prossimi Passaggi (prossime 24 ore)

TLE

AggiornatoSource: Space-Track

Epoca: Sep 14, 2026, 09:22 UTC

1 21279U 75052Q   26257.39076668  .00000041  00000-0  11588-3 0  9998
2 21279  99.4639  53.8853 0055211 208.8541 180.3795 13.57614834751151

Traccia DELTA 1 DEB in tempo reale con AllMySat

Download on the App Store